Flag for Canada Weather past 2 weeks in Greater Sudbury, Ontario, Canada

Now
12 °F

Low clouds.


Feels Like: 1 °F
Forecast: 9 / 19 °F
Wind: 8 mph from North

Location: Sudbury

Current Time: Dec 18, 2014 at 8:40:56 AM

Latest Report: Dec 18, 2014 at 8:00 AM


Visibility: 15 mi

Pressure: 30.19 "Hg

Humidity: 85%

Dew point: 9 °F

Location of Greater SudburyLocation

Historic Weather in Greater Sudbury — Graph

°F

Greater Sudbury temperature yesterday

Maximum temperature yesterday: 32 °F (at 12:00 AM)
Minimum temperature yesterday: 18 °F (at 9:00 PM)
Average temperature yesterday: 25 °F

Past Weeks' High & Low Weather Summary

 TemperatureHumidityPressure
High36 °F (Dec 16, 4:00 PM)100% (Dec 12, 10:00 PM)30.82 "Hg (Dec 12, 10:00 PM)
Low0 °F (Dec 4, 8:00 AM)42% (Dec 11, 2:00 PM)29.79 "Hg (Dec 16, 3:00 PM)
Average23 °F81%30.15 "Hg
* Reported Dec 3 7:00 AM — Dec 18 7:00 AM, Greater Sudbury, Weather by CustomWeather, © 2014

Note: Actual official high and low records may vary slightly from our data, if they occured in-between our weather recording intervals... More about our weather records

Advertising

Greater Sudbury weather history for previous 24 hours

 ConditionsComfort  
Time TempWeatherWind HumidityBarometerVisibility
7:00 AM
Dec 18
12 °FLow clouds.12 mph85%30.17 "Hg15 mi
6:00 AM12 °FOvercast.10 mph85%30.16 "Hg15 mi
5:00 AM12 °FMostly cloudy.13 mph92%30.13 "Hg15 mi
4:00 AM14 °FOvercast.14 mph85%30.11 "Hg15 mi
3:00 AM14 °FLight snow. Sandstorm.16 mph85%30.10 "Hg15 mi
2:00 AM16 °FLight snow. Mostly cloudy.13 mph86%30.08 "Hg6 mi
1:00 AM16 °FLight snow. Mostly cloudy.16 mph86%30.06 "Hg10 mi
12:00 AM18 °FLight snow. Mostly cloudy.13 mph86%30.05 "Hg15 mi
11:00 PM
Dec 17
18 °FLight snow. Overcast.13 mph86%30.04 "Hg15 mi
10:00 PM18 °FLight snow. Mostly cloudy.15 mph86%30.03 "Hg5 mi
9:00 PM18 °FLight snow. Overcast.14 mph93%30.01 "Hg3 mi
8:00 PM19 °FLight snow. Mostly cloudy.16 mph86%29.99 "Hg6 mi
7:00 PM19 °FLight snow. Mostly cloudy.16 mph86%29.97 "Hg6 mi
6:00 PM21 °FLight snow. Mostly cloudy.14 mph86%29.95 "Hg6 mi
5:00 PM21 °FLight snow. Mostly cloudy.17 mph86%29.93 "Hg3 mi
4:00 PM21 °FLight snow. Mostly cloudy.9 mph93%29.91 "Hg3 mi
3:00 PM23 °FLight snow. Low clouds.12 mph86%29.89 "Hg3 mi
2:00 PM23 °FLight snow. Low clouds.13 mph86%29.88 "Hg15 mi
1:00 PM23 °FLight snow. More clouds than sun.13 mph93%29.87 "Hg3 mi
12:00 PM23 °FLight snow. More clouds than sun.14 mph93%29.87 "Hg1 mi
11:00 AM23 °FLight snow. Mostly cloudy.14 mph93%29.88 "Hg1 mi
10:53 AM23 °FLight snow. Mostly cloudy.14 mph93%29.88 "Hg1 mi
10:00 AM25 °FLight snow. More clouds than sun.13 mph86%29.87 "Hg2 mi
9:50 AM25 °FLight snow. Mostly cloudy.15 mph86%29.87 "Hg2 mi
9:00 AM25 °FLight snow. Mostly cloudy.12 mph93%29.86 "Hg3 mi
8:00 AM25 °FLight snow. Ice fog.13 mph93%29.84 "Hg1 mi
Weather by CustomWeather, © 2014

See weather overviewHow to use our weather pages